ON4CDJ-13 Weather Reports


time (UTC)temp
C
wind
direction
speed
KPH
gust
KPH
rain 1hr
cm
rain 24hr
cm
rain mn
cm
humidity
%
barometer
mb
20260510091540 17 42 4.8 14.5 0.00 0.00 0.00 54 1015.9
20260510090520 17 103 3.2 14.5 0.00 0.00 0.00 54 1015.9
20260510085607 17 84 4.8 14.5 0.00 0.00 0.00 55 1015.8
20260510084550 16 46 6.4 17.7 0.00 0.00 0.00 55 1015.9
20260510083532 16 162 3.2 11.3 0.00 0.00 0.00 57 1016.0
20260510082614 16 86 8.0 25.7 0.00 0.00 0.00 58 1016.0
20260510081556 16 102 3.2 11.3 0.00 0.00 0.00 60 1016.0
20260510080612 15 57 6.4 22.5 0.00 0.00 0.00 60 1016.1
20260510075617 15 82 6.4 16.1 0.00 0.00 0.00 61 1016.2
20260510074557 15 48 6.4 16.1 0.00 0.00 0.00 62 1016.3
20260510073540 15 94 4.8 14.5 0.00 0.00 0.00 64 1016.3
20260510072520 15 33 6.4 16.1 0.00 0.00 0.00 65 1016.3
20260510071608 15 112 3.2 11.3 0.00 0.00 0.00 67 1016.5
20260510070556 14 116 1.6 9.7 0.00 0.00 0.00 69 1016.5
20260510065553 13 28 3.2 11.3 0.00 0.00 0.00 70 1016.5
20260510064617 13 15 4.8 11.3 0.00 0.00 0.00 72 1016.4
20260510063559 13 93 4.8 16.1 0.00 0.00 0.00 72 1016.5
20260510062536 13 110 3.2 11.3 0.00 0.00 0.00 75 1016.5
20260510061614 12 89 4.8 11.3 0.00 0.00 0.00 76 1016.6
20260510060602 12 35 4.8 11.3 0.00 0.00 0.00 77 1016.5
20260510055541 12 45 3.2 11.3 0.00 0.00 0.00 78 1016.6
20260510054548 12 95 1.6 4.8 0.00 0.00 0.00 79 1016.6
20260510053616 11 104 3.2 16.1 0.00 0.00 0.00 80 1016.6
20260510052549 11 177 3.2 9.7 0.00 0.00 0.00 80 1016.6
20260510051534 11 162 3.2 9.7 0.00 0.00 0.00 81 1016.5
20260510050520 11 317 3.2 4.8 0.00 0.00 0.00 82 1016.5
20260510045600 10 57 1.6 6.4 0.00 0.00 0.00 83 1016.5
20260510044607 10 108 1.6 9.7 0.00 0.00 0.00 84 1016.4
20260510043528 10 118 1.6 4.8 0.00 0.00 0.00 85 1016.3
20260510042604 10 305 1.6 6.4 0.00 0.00 0.00 86 1016.2
20260510041550 10 36 0.0 4.8 0.00 0.00 0.00 87 1016.2
20260510040613 10 0.0 1.6 0.00 0.00 0.00 87 1016.3
20260510035519 10 201 0.0 3.2 0.00 0.00 0.00 87 1016.4
20260510034556 10 79 1.6 3.2 0.00 0.00 0.00 87 1016.5
20260510033542 10 218 1.6 4.8 0.00 0.00 0.00 87 1016.4
20260510032524 10 18 0.0 3.2 0.00 0.00 0.00 87 1016.5
20260510031622 10 241 1.6 3.2 0.00 0.00 0.00 86 1016.5
20260510030542 10 179 0.0 3.2 0.00 0.00 0.00 86 1016.5
20260510025524 10 0.0 0.0 0.00 0.00 0.00 85 1016.4
20260510024611 10 183 1.6 3.2 0.00 0.00 0.00 85 1016.6
20260510023553 10 262 0.0 3.2 0.00 0.00 0.00 85 1016.6
20260510022530 10 144 0.0 4.8 0.00 0.00 0.00 85 1016.6
20260510021614 10 0.0 0.0 0.00 0.00 0.00 85 1016.7
20260510020635 10 210 0.0 3.2 0.00 0.00 0.00 84 1016.7
20260510015539 10 0.0 0.0 0.00 0.00 0.00 84 1016.8
20260510014520 10 119 0.0 3.2 0.00 0.00 0.00 83 1016.8
20260510013646 10 204 0.0 4.8 0.00 0.00 0.00 83 1016.8
20260510012548 10 0.0 0.0 0.00 0.00 0.00 83 1016.7
20260510011526 11 0.0 0.0 0.00 0.00 0.00 82 1016.8
20260510010614 11 304 1.6 4.8 0.00 0.00 0.00 81 1016.9
20260510005559 11 110 0.0 3.2 0.00 0.00 0.00 80 1016.9
20260510004532 11 0.0 0.0 0.00 0.00 0.00 80 1017.0
20260510003521 11 0.0 0.0 0.00 0.00 0.00 80 1017.1
20260510002607 11 296 1.6 3.2 0.00 0.00 0.00 80 1017.2
20260510001539 11 257 0.0 1.6 0.00 0.00 0.00 80 1017.2
20260510000519 10 210 0.0 3.2 0.00 0.00 0.00 80 1017.2
20260509235626 10 325 0.0 4.8 0.00 0.00 0.00 79 1017.4
20260509234547 10 316 1.6 4.8 0.00 0.00 0.00 79 1017.4
20260509233533 10 288 0.0 3.2 0.00 0.00 0.00 79 1017.4
20260509232611 10 269 0.0 1.6 0.00 0.00 0.00 78 1017.5
20260509231610 10 319 1.6 4.8 0.00 0.00 0.00 78 1017.5
20260509230534 10 297 1.6 3.2 0.00 0.00 0.00 76 1017.5
20260509225615 11 0.0 0.0 0.00 0.00 0.00 74 1017.6
20260509224557 11 309 1.6 3.2 0.00 0.00 0.00 73 1017.5
20260509223600 11 307 1.6 3.2 0.00 0.00 0.00 72 1017.4
20260509222523 11 315 0.0 3.2 0.00 0.00 0.00 71 1017.5
20260509221603 12 228 0.0 1.6 0.00 0.00 0.00 70 1017.3
20260509220543 12 0.0 1.6 0.00 0.00 0.00 69 1017.4
20260509215528 12 299 0.0 3.2 0.00 0.00 0.00 68 1017.4
20260509214608 12 0.0 0.0 0.00 0.00 0.00 67 1017.6
20260509213549 12 338 1.6 9.7 0.00 0.00 0.00 66 1017.3
20260509212531 12 332 3.2 6.4 0.00 0.00 0.00 66 1017.4
20260509211631 12 329 3.2 4.8 0.00 0.00 0.00 65 1017.4
20260509210552 13 332 4.8 9.7 0.00 0.00 0.00 64 1017.2
20260509205631 13 275 0.0 3.2 0.00 0.00 0.00 64 1017.2
20260509204616 13 248 0.0 4.8 0.00 0.00 0.00 63 1017.2
20260509203558 13 315 0.0 4.8 0.00 0.00 0.00 64 1017.2
20260509202537 13 280 1.6 4.8 0.00 0.00 0.00 64 1017.2
20260509201544 13 0.0 3.2 0.00 0.00 0.00 64 1017.3
20260509200607 14 253 0.0 4.8 0.00 0.00 0.00 64 1017.3
20260509195551 14 277 1.6 4.8 0.00 0.00 0.00 63 1017.2
20260509194559 15 296 1.6 6.4 0.00 0.00 0.00 63 1017.1
20260509193519 15 308 1.6 12.9 0.00 0.00 0.00 63 1017.0
20260509192556 15 305 1.6 6.4 0.00 0.00 0.00 63 1016.9
20260509191544 15 311 3.2 9.7 0.00 0.00 0.00 62 1017.0
20260509190529 16 345 3.2 9.7 0.00 0.00 0.00 60 1017.1
20260509185630 16 3 3.2 11.3 0.00 0.00 0.00 59 1017.0
20260509184554 17 84 3.2 11.3 0.00 0.00 0.00 58 1017.0
20260509183534 17 336 4.8 12.9 0.00 0.00 0.00 56 1017.0
20260509182518 18 345 6.4 16.1 0.00 0.00 0.00 53 1016.9
20260509181605 18 341 3.2 12.9 0.00 0.00 0.00 51 1016.9
20260509180551 18 100 3.2 11.3 0.00 0.00 0.00 50 1016.8
20260509175526 19 313 4.8 12.9 0.00 0.00 0.00 49 1016.8
20260509174613 19 339 4.8 14.5 0.00 0.00 0.00 48 1016.6
20260509173550 20 225 3.2 9.7 0.00 0.00 0.00 47 1016.6
20260509172537 20 305 3.2 12.9 0.00 0.00 0.00 48 1016.6
20260509171611 20 319 4.8 16.1 0.00 0.00 0.00 48 1016.4
20260509170614 20 330 4.8 16.1 0.00 0.00 0.00 46 1016.4
20260509165602 21 298 1.6 9.7 0.00 0.00 0.00 45 1016.6
20260509164528 21 29 3.2 12.9 0.00 0.00 0.00 46 1016.6
20260509163611 20 246 3.2 11.3 0.00 0.00 0.00 47 1016.6
20260509162549 21 285 3.2 11.3 0.00 0.00 0.00 47 1016.6
20260509161525 21 278 3.2 12.9 0.00 0.00 0.00 46 1016.6
20260509160610 22 51 4.8 9.7 0.00 0.00 0.00 43 1016.6
20260509155601 21 48 1.6 16.1 0.00 0.00 0.00 45 1016.6
20260509154533 20 317 3.2 6.4 0.00 0.00 0.00 44 1016.6
20260509153517 21 339 3.2 9.7 0.00 0.00 0.00 44 1016.6
20260509152554 22 100 3.2 11.3 0.00 0.00 0.00 41 1016.6
20260509151533 22 257 1.6 6.4 0.00 0.00 0.00 44 1016.7
20260509150519 22 327 3.2 11.3 0.00 0.00 0.00 42 1016.7
20260509145558 21 318 3.2 9.7 0.00 0.00 0.00 45 1016.8
20260509144603 21 222 1.6 6.4 0.00 0.00 0.00 43 1016.9
20260509143523 22 74 6.4 16.1 0.00 0.00 0.00 41 1016.8
20260509142610 22 348 3.2 11.3 0.00 0.00 0.00 42 1017.0
20260509141611 22 65 3.2 6.4 0.00 0.00 0.00 40 1017.0
20260509140538 22 359 4.8 12.9 0.00 0.00 0.00 41 1017.0
20260509135525 22 142 3.2 11.3 0.00 0.00 0.00 41 1017.1
20260509134613 22 115 4.8 11.3 0.00 0.00 0.00 43 1017.2
20260509133550 21 57 4.8 11.3 0.00 0.00 0.00 43 1017.1
20260509132526 21 8 3.2 6.4 0.00 0.00 0.00 42 1017.3
20260509131610 21 164 3.2 9.7 0.00 0.00 0.00 42 1017.6
20260509130542 21 108 4.8 14.5 0.00 0.00 0.00 44 1017.6
20260509125524 21 90 3.2 12.9 0.00 0.00 0.00 44 1017.7
20260509124605 21 95 4.8 11.3 0.00 0.00 0.00 43 1018.0
20260509123546 21 78 4.8 9.7 0.00 0.00 0.00 43 1017.9
20260509122547 21 88 3.2 9.7 0.00 0.00 0.00 44 1018.1
20260509121717 21 157 3.2 9.7 0.00 0.00 0.00 44 1018.2
20260509120559 21 95 1.6 9.7 0.00 0.00 0.00 45 1018.2
20260509115538 21 55 4.8 14.5 0.00 0.00 0.00 45 1018.2
20260509114614 21 157 3.2 6.4 0.00 0.00 0.00 44 1018.4
20260509113559 21 157 3.2 11.3 0.00 0.00 0.00 43 1018.5
20260509112545 20 51 4.8 12.9 0.00 0.00 0.00 45 1018.6
20260509111552 20 85 3.2 11.3 0.00 0.00 0.00 46 1018.7
20260509110519 20 3 3.2 11.3 0.00 0.00 0.00 47 1018.8
20260509105602 20 53 3.2 12.9 0.00 0.00 0.00 45 1018.9
20260509104543 20 108 3.2 12.9 0.00 0.00 0.00 45 1018.9
20260509103522 19 343 3.2 12.9 0.00 0.00 0.00 47 1019.0
20260509102602 20 74 1.6 11.3 0.00 0.00 0.00 45 1019.0
20260509101602 20 141 3.2 12.9 0.00 0.00 0.00 45 1019.1
20260509100527 20 87 4.8 9.7 0.00 0.00 0.00 45 1019.1
20260509095627 20 88 6.4 12.9 0.00 0.00 0.00 44 1019.2
20260509094551 19 130 3.2 11.3 0.00 0.00 0.00 47 1019.1
20260509093533 19 77 4.8 12.9 0.00 0.00 0.00 47 1019.2
20260509092542 19 89 4.8 9.7 0.00 0.00 0.00 47 1019.2